Location: Akgöl Batakl???
(38.9482°N, 31.8837°E)
Time: 12:29:56
(UTC+00:00)

SPOT 3 Rocket - Pass Details

Date: 08 May 2026
Orbit: 774 x 790 km, 98.5° (Epoch: 8 June)

Event Time Altitude Azimuth Distance (km) Brightness Sun altitude
Exits shadow 19:53:56 45° 245° (WSW) 1,056 4.2 -27.7°
Maximum altitude 19:54:22 46° 261° (W) 1,040 4.2 -27.7°
Drops below altitude 10° 19:59:18 10° 334° (NNW) 2,335 7.0 -28.2°
Sets 20:01:43 0° 341° (NNW) 3,265 8.0 -28.4°
